^^

..:: Storico WU ::..




Lo storico viene creato da WUnderground con i dati che la stazione Meteomincio invia al loro server. L' aggiornamento viene fatto ogni 5 minuti circa, tuttavia possono esserci intervalli pił ampi a causa di errori, interruzioni di servizio o problemi nell' invio tramite FTP.


Storico stazione MeteoMincio
Giorno Sommario per Settembre 25, 2022 Unità:  Inglese    Metrico   Entrambi
Giorno Settimana Mese Anno
  Max: Min: Media:
Temperatura: 68 °F 57.2 °F 61.7 °F
Dew Point: 59 °F 55.4 °F 57.6 °F
Umidità: 95% 75% 87%
Velocità vento: 8.7mph 0mph 3.2mph
Raffica: 11.8mph - -
Direzione- - WSW
Pressione: 29.9 in 29.8 in -
Precipitazioni: 0.02 in    
 
 
Tabulato Dati per Settembre 25, 2022
Ora Temperatura Dew Point Pressione Direzione Velocità vento Raffica Umidità Intensità pioggia (oraria) Info solare Situazione
00:04 59 °F 55.4 °F 29.9 in ENE 5 mph 6.8 mph 92% 0.01 in 0.00 W/m2 unknown
00:09 59 °F 55.4 °F 29.9 in ENE 5 mph 6.8 mph 92% 0.01 in 0.00 W/m2 unknown
00:14 59 °F 55.4 °F 29.9 in NE 3.7 mph 6.8 mph 92% 0.01 in 0.00 W/m2 unknown
00:19 59 °F 55.4 °F 29.9 in NE 4.3 mph 5 mph 92% 0.01 in 0.00 W/m2 unknown
00:24 59 °F 55.4 °F 29.9 in NNE 4.3 mph 6.2 mph 92% 0 in 0.00 W/m2 unknown
00:29 59 °F 55.4 °F 29.9 in NNE 5 mph 6.2 mph 92% 0 in 0.00 W/m2 unknown
00:34 59 °F 55.4 °F 29.9 in NNE 5 mph 6.2 mph 92% 0 in 0.00 W/m2 unknown
00:39 59 °F 55.4 °F 29.9 in NNE 3.7 mph 6.2 mph 92% 0 in 0.00 W/m2 unknown
00:44 59 °F 55.4 °F 29.9 in NNE 3.7 mph 5 mph 92% 0 in 0.00 W/m2 unknown
00:49 59 °F 55.4 °F 29.9 in NNE 3.1 mph 5 mph 92% 0 in 0.00 W/m2 unknown
00:54 59 °F 55.4 °F 29.9 in NE 3.1 mph 5 mph 92% 0 in 0.00 W/m2 unknown
00:59 59 °F 55.4 °F 29.9 in NE 2.5 mph 5 mph 92% 0 in 0.00 W/m2 unknown
01:04 59 °F 55.4 °F 29.9 in NNE 3.1 mph 5 mph 92% 0 in 0.00 W/m2 unknown
01:09 59 °F 55.4 °F 29.9 in NNE 3.1 mph 4.3 mph 92% 0.01 in 0.00 W/m2 unknown
01:14 59 °F 55.4 °F 29.9 in NNE 3.1 mph 3.7 mph 93% 0.01 in 0.00 W/m2 unknown
01:19 59 °F 57.2 °F 29.9 in North 2.5 mph 3.7 mph 93% 0.01 in 0.00 W/m2 unknown
01:24 59 °F 55.4 °F 29.9 in North 3.7 mph 6.2 mph 93% 0.01 in 0.00 W/m2 unknown
01:29 59 °F 55.4 °F 29.9 in NNE 3.1 mph 6.2 mph 92% 0.01 in 0.00 W/m2 unknown
01:34 59 °F 55.4 °F 29.9 in NNE 3.1 mph 5 mph 92% 0.01 in 0.00 W/m2 unknown
01:39 59 °F 55.4 °F 29.9 in NNE 3.1 mph 5 mph 93% 0.01 in 0.00 W/m2 unknown
01:44 59 °F 55.4 °F 29.9 in NNE 3.1 mph 3.7 mph 93% 0.01 in 0.00 W/m2 unknown
01:49 59 °F 55.4 °F 29.9 in NNE 2.5 mph 3.7 mph 93% 0.01 in 0.00 W/m2 unknown
01:54 59 °F 55.4 °F 29.9 in NNE 1.9 mph 3.7 mph 93% 0.01 in 0.00 W/m2 unknown
01:59 59 °F 57.2 °F 29.9 in NNE 1.9 mph 3.7 mph 93% 0.01 in 0.00 W/m2 unknown
02:04 59 °F 57.2 °F 29.9 in North 1.9 mph 3.7 mph 93% 0.02 in 0.00 W/m2 unknown
02:09 59 °F 57.2 °F 29.9 in North 1.9 mph 3.7 mph 93% 0.02 in 0.00 W/m2 unknown
02:14 59 °F 57.2 °F 29.9 in North 1.2 mph 3.1 mph 93% 0.02 in 0.00 W/m2 unknown
02:19 59 °F 57.2 °F 29.9 in NNW 1.2 mph 2.5 mph 93% 0.01 in 0.00 W/m2 unknown
02:24 59 °F 57.2 °F 29.9 in NW 1.2 mph 2.5 mph 93% 0.01 in 0.00 W/m2 unknown
02:29 59 °F 57.2 °F 29.9 in NW 1.2 mph 2.5 mph 93% 0.01 in 0.00 W/m2 unknown
02:34 59 °F 57.2 °F 29.9 in WNW 1.9 mph 3.7 mph 93% 0.01 in 0.00 W/m2 unknown
02:39 59 °F 57.2 °F 29.9 in WNW 2.5 mph 3.7 mph 93% 0.01 in 0.00 W/m2 unknown
02:44 59 °F 57.2 °F 29.9 in WNW 2.5 mph 3.7 mph 93% 0.01 in 0.00 W/m2 unknown
02:49 59 °F 57.2 °F 29.9 in NW 2.5 mph 3.7 mph 93% 0.01 in 0.00 W/m2 unknown
02:54 59 °F 57.2 °F 29.9 in NW 1.9 mph 3.1 mph 93% 0.01 in 0.00 W/m2 unknown
02:59 59 °F 57.2 °F 29.9 in NW 1.9 mph 3.7 mph 93% 0.01 in 0.00 W/m2 unknown
03:04 59 °F 57.2 °F 29.9 in NW 1.9 mph 3.7 mph 93% 0.01 in 0.00 W/m2 unknown
03:09 59 °F 57.2 °F 29.9 in NW 1.9 mph 3.7 mph 94% 0.01 in 0.00 W/m2 unknown
03:14 59 °F 57.2 °F 29.9 in NW 1.9 mph 3.7 mph 94% 0.01 in 0.00 W/m2 unknown
03:19 59 °F 57.2 °F 29.9 in WNW 1.9 mph 3.7 mph 94% 0 in 0.00 W/m2 unknown
03:24 59 °F 57.2 °F 29.9 in WNW 1.9 mph 3.1 mph 94% 0 in 0.00 W/m2 unknown
03:29 59 °F 57.2 °F 29.9 in WNW 1.2 mph 2.5 mph 93% 0 in 0.00 W/m2 unknown
03:34 59 °F 57.2 °F 29.9 in WNW 1.9 mph 2.5 mph 93% 0 in 0.00 W/m2 unknown
03:39 59 °F 57.2 °F 29.9 in WNW 1.2 mph 2.5 mph 94% 0 in 0.00 W/m2 unknown
03:44 59 °F 57.2 °F 29.9 in WNW 1.9 mph 3.7 mph 94% 0 in 0.00 W/m2 unknown
03:49 59 °F 57.2 °F 29.9 in WNW 3.1 mph 3.7 mph 94% 0 in 0.00 W/m2 unknown
03:54 59 °F 57.2 °F 29.9 in WNW 3.1 mph 3.7 mph 94% 0 in 0.00 W/m2 unknown
03:59 59 °F 57.2 °F 29.9 in West 2.5 mph 3.7 mph 94% 0 in 0.00 W/m2 unknown
04:04 59 °F 57.2 °F 29.9 in West 2.5 mph 3.7 mph 94% 0 in 0.00 W/m2 unknown
04:09 59 °F 57.2 °F 29.9 in West 1.9 mph 3.7 mph 94% 0 in 0.00 W/m2 unknown
04:14 59 °F 57.2 °F 29.9 in West 1.2 mph 3.1 mph 94% 0 in 0.00 W/m2 unknown
04:19 59 °F 57.2 °F 29.9 in WSW 2.5 mph 3.7 mph 94% 0 in 0.00 W/m2 unknown
04:24 59 °F 57.2 °F 29.9 in WSW 2.5 mph 3.7 mph 94% 0 in 0.00 W/m2 unknown
04:29 59 °F 57.2 °F 29.9 in WSW 3.1 mph 5 mph 94% 0 in 0.00 W/m2 unknown
04:34 59 °F 57.2 °F 29.9 in WSW 3.1 mph 5 mph 94% 0 in 0.00 W/m2 unknown
04:39 59 °F 57.2 °F 29.9 in WSW 2.5 mph 5 mph 94% 0 in 0.00 W/m2 unknown
04:44 59 °F 57.2 °F 29.9 in WSW 3.1 mph 3.7 mph 94% 0 in 0.00 W/m2 unknown
04:49 59 °F 57.2 °F 29.9 in West 3.7 mph 5 mph 94% 0 in 0.00 W/m2 unknown
04:54 59 °F 57.2 °F 29.9 in West 3.1 mph 5 mph 94% 0 in 0.00 W/m2 unknown
04:59 59 °F 57.2 °F 29.9 in West 1.9 mph 5 mph 94% 0 in 0.00 W/m2 unknown
05:04 59 °F 57.2 °F 29.9 in West 1.9 mph 3.7 mph 94% 0 in 0.00 W/m2 unknown
05:09 59 °F 57.2 °F 29.9 in West 1.2 mph 2.5 mph 94% 0 in 0.00 W/m2 unknown
05:14 59 °F 57.2 °F 29.9 in WNW 3.1 mph 3.7 mph 94% 0 in 0.00 W/m2 unknown
05:19 59 °F 57.2 °F 29.9 in West 2.5 mph 3.7 mph 94% 0 in 0.00 W/m2 unknown
05:24 59 °F 57.2 °F 29.9 in WSW 3.1 mph 3.7 mph 94% 0 in 0.00 W/m2 unknown
05:29 59 °F 57.2 °F 29.9 in WSW 4.3 mph 5 mph 94% 0 in 0.00 W/m2 unknown
05:34 59 °F 57.2 °F 29.9 in West 5 mph 5 mph 94% 0 in 0.00 W/m2 unknown
05:39 59 °F 57.2 °F 29.9 in West 3.1 mph 5 mph 94% 0 in 0.00 W/m2 unknown
05:44 59 °F 57.2 °F 29.9 in WNW 5.6 mph 6.8 mph 94% 0 in 0.00 W/m2 unknown
05:49 59 °F 57.2 °F 29.9 in WNW 5 mph 6.8 mph 94% 0 in 0.00 W/m2 unknown
05:54 59 °F 57.2 °F 29.9 in West 3.7 mph 6.2 mph 94% 0 in 0.00 W/m2 unknown
05:59 59 °F 57.2 °F 29.9 in West 3.7 mph 6.2 mph 94% 0 in 0.00 W/m2 unknown
06:04 59 °F 57.2 °F 29.9 in West 4.3 mph 6.2 mph 94% 0 in 0.00 W/m2 unknown
06:09 59 °F 57.2 °F 29.9 in West 4.3 mph 6.2 mph 94% 0 in 0.00 W/m2 unknown
06:14 59 °F 57.2 °F 29.9 in West 3.1 mph 6.2 mph 94% 0 in 0.00 W/m2 unknown
06:19 59 °F 57.2 °F 29.9 in West 3.1 mph 5 mph 94% 0 in 0.00 W/m2 unknown
06:24 59 °F 57.2 °F 29.9 in WNW 2.5 mph 3.7 mph 94% 0 in 0.00 W/m2 unknown
06:29 59 °F 57.2 °F 29.9 in West 3.7 mph 5 mph 94% 0 in 0.00 W/m2 unknown
06:34 59 °F 57.2 °F 29.9 in West 3.7 mph 5 mph 94% 0 in 0.00 W/m2 unknown
06:39 59 °F 57.2 °F 29.9 in WSW 2.5 mph 5 mph 94% 0 in 0.00 W/m2 unknown
06:44 59 °F 57.2 °F 29.9 in West 2.5 mph 3.7 mph 94% 0 in 0.00 W/m2 unknown
06:49 59 °F 57.2 °F 29.9 in SW 2.5 mph 3.7 mph 94% 0 in 0.00 W/m2 unknown
06:54 59 °F 57.2 °F 29.9 in SW 3.1 mph 5 mph 94% 0 in 0.00 W/m2 unknown
06:59 59 °F 57.2 °F 29.9 in WSW 3.1 mph 5 mph 94% 0 in 0.00 W/m2 unknown
07:04 59 °F 57.2 °F 29.9 in WSW 3.1 mph 5 mph 94% 0 in 0.00 W/m2 unknown
07:09 59 °F 57.2 °F 29.9 in SW 3.1 mph 5 mph 94% 0 in 0.00 W/m2 unknown
07:14 57.2 °F 57.2 °F 29.9 in WSW 2.5 mph 3.7 mph 94% 0 in 0.00 W/m2 unknown
07:19 57.2 °F 57.2 °F 29.9 in West 2.5 mph 3.7 mph 94% 0 in 0.00 W/m2 unknown
07:24 57.2 °F 57.2 °F 29.9 in West 2.5 mph 3.7 mph 94% 0 in 0.00 W/m2 unknown
07:29 57.2 °F 57.2 °F 29.9 in West 3.1 mph 3.7 mph 95% 0 in 5.00 W/m2 unknown
07:34 57.2 °F 57.2 °F 29.9 in WNW 3.7 mph 5 mph 94% 0 in 0.00 W/m2 unknown
07:39 57.2 °F 57.2 °F 29.9 in WNW 3.7 mph 4.3 mph 94% 0 in 11.00 W/m2 unknown
07:44 59 °F 57.2 °F 29.9 in West 3.1 mph 3.7 mph 94% 0 in 14.00 W/m2 unknown
07:49 59 °F 57.2 °F 29.9 in West 3.1 mph 3.7 mph 95% 0 in 14.00 W/m2 unknown
07:54 59 °F 57.2 °F 29.9 in West 2.5 mph 3.7 mph 95% 0 in 16.00 W/m2 unknown
07:59 59 °F 57.2 °F 29.9 in West 3.1 mph 3.7 mph 94% 0 in 16.00 W/m2 unknown
08:04 59 °F 57.2 °F 29.9 in WNW 4.3 mph 5 mph 95% 0 in 19.00 W/m2 unknown
08:09 59 °F 57.2 °F 29.9 in West 4.3 mph 5 mph 95% 0 in 26.00 W/m2 unknown
08:14 59 °F 57.2 °F 29.9 in WNW 3.7 mph 5 mph 94% 0 in 39.00 W/m2 unknown
08:19 59 °F 57.2 °F 29.9 in WNW 4.3 mph 6.2 mph 94% 0 in 42.00 W/m2 unknown
08:24 59 °F 57.2 °F 29.9 in WNW 3.7 mph 6.2 mph 94% 0 in 42.00 W/m2 unknown
08:29 59 °F 57.2 °F 29.9 in WNW 5 mph 6.2 mph 94% 0 in 35.00 W/m2 unknown
08:34 59 °F 57.2 °F 29.9 in WNW 5 mph 6.2 mph 94% 0 in 33.00 W/m2 unknown
08:39 59 °F 57.2 °F 29.9 in West 3.7 mph 6.2 mph 94% 0 in 32.00 W/m2 unknown
08:44 59 °F 57.2 °F 29.9 in West 3.7 mph 5 mph 94% 0 in 37.00 W/m2 unknown
08:49 59 °F 57.2 °F 29.9 in West 3.7 mph 5 mph 94% 0 in 44.00 W/m2 unknown
08:54 59 °F 57.2 °F 29.9 in WNW 3.1 mph 5 mph 94% 0 in 49.00 W/m2 unknown
08:59 59 °F 57.2 °F 29.9 in WNW 3.7 mph 5 mph 94% 0 in 53.00 W/m2 unknown
09:04 59 °F 57.2 °F 29.9 in WNW 5 mph 6.8 mph 93% 0 in 86.00 W/m2 unknown
09:09 59 °F 57.2 °F 29.9 in WNW 5.6 mph 8.1 mph 93% 0 in 105.00 W/m2 unknown
09:14 59 °F 57.2 °F 29.9 in WNW 6.2 mph 8.1 mph 93% 0 in 109.00 W/m2 unknown
09:19 59 °F 57.2 °F 29.9 in WNW 6.8 mph 9.3 mph 92% 0 in 130.00 W/m2 unknown
09:24 60.8 °F 57.2 °F 29.9 in WNW 6.8 mph 9.3 mph 92% 0 in 148.00 W/m2 unknown
09:29 60.8 °F 57.2 °F 29.9 in WNW 6.2 mph 9.3 mph 91% 0 in 158.00 W/m2 unknown
09:34 60.8 °F 57.2 °F 29.9 in WNW 6.2 mph 10.6 mph 91% 0 in 181.00 W/m2 unknown
09:39 60.8 °F 57.2 °F 29.9 in WNW 5.6 mph 9.9 mph 90% 0 in 183.00 W/m2 unknown
09:44 60.8 °F 57.2 °F 29.9 in WNW 6.8 mph 9.3 mph 90% 0 in 193.00 W/m2 unknown
09:49 60.8 °F 57.2 °F 29.9 in WNW 8.1 mph 10.6 mph 90% 0 in 188.00 W/m2 unknown
09:54 60.8 °F 57.2 °F 29.9 in WNW 6.2 mph 9.9 mph 89% 0 in 186.00 W/m2 unknown
09:59 60.8 °F 57.2 °F 29.9 in WNW 8.1 mph 9.9 mph 89% 0 in 178.00 W/m2 unknown
10:04 60.8 °F 57.2 °F 29.9 in West 8.7 mph 11.8 mph 88% 0 in 186.00 W/m2 unknown
10:09 60.8 °F 57.2 °F 29.9 in WNW 8.1 mph 11.8 mph 88% 0 in 200.00 W/m2 unknown
10:14 60.8 °F 57.2 °F 29.9 in WNW 7.5 mph 11.8 mph 88% 0 in 181.00 W/m2 unknown
10:19 60.8 °F 57.2 °F 29.9 in WNW 7.5 mph 10.6 mph 88% 0 in 174.00 W/m2 unknown
10:24 60.8 °F 57.2 °F 29.9 in WNW 7.5 mph 11.8 mph 88% 0 in 171.00 W/m2 unknown
10:29 60.8 °F 57.2 °F 29.9 in WNW 7.5 mph 11.8 mph 87% 0 in 165.00 W/m2 unknown
10:34 60.8 °F 57.2 °F 29.9 in WNW 7.5 mph 9.3 mph 87% 0 in 172.00 W/m2 unknown
10:39 60.8 °F 57.2 °F 29.9 in WNW 6.8 mph 8.7 mph 87% 0 in 176.00 W/m2 unknown
10:44 62.6 °F 57.2 °F 29.9 in WNW 6.2 mph 8.1 mph 87% 0 in 211.00 W/m2 unknown
10:49 62.6 °F 59 °F 29.9 in WNW 6.2 mph 9.3 mph 87% 0 in 229.00 W/m2 unknown
10:54 62.6 °F 57.2 °F 29.9 in WNW 6.8 mph 9.3 mph 86% 0 in 234.00 W/m2 unknown
10:59 62.6 °F 57.2 °F 29.9 in WNW 6.2 mph 8.7 mph 86% 0 in 278.00 W/m2 unknown
11:04 62.6 °F 57.2 °F 29.9 in NW 6.2 mph 8.1 mph 86% 0 in 325.00 W/m2 unknown
11:09 62.6 °F 59 °F 29.9 in WNW 5 mph 8.1 mph 85% 0 in 341.00 W/m2 unknown
11:14 64.4 °F 59 °F 29.9 in WNW 4.3 mph 8.1 mph 85% 0 in 341.00 W/m2 unknown
11:19 64.4 °F 59 °F 29.9 in WNW 5 mph 8.1 mph 84% 0 in 329.00 W/m2 unknown
11:24 64.4 °F 59 °F 29.9 in WNW 6.8 mph 8.7 mph 84% 0 in 325.00 W/m2 unknown
11:29 62.6 °F 57.2 °F 29.9 in WNW 6.8 mph 8.7 mph 82% 0 in 325.00 W/m2 unknown
11:34 62.6 °F 57.2 °F 29.9 in WNW 6.8 mph 9.3 mph 82% 0 in 250.00 W/m2 unknown
11:39 62.6 °F 57.2 °F 29.9 in WNW 6.2 mph 8.7 mph 82% 0 in 202.00 W/m2 unknown
11:44 62.6 °F 57.2 °F 29.9 in WNW 6.2 mph 8.1 mph 82% 0 in 176.00 W/m2 unknown
11:49 62.6 °F 57.2 °F 29.9 in WNW 5 mph 6.8 mph 83% 0 in 186.00 W/m2 unknown
11:54 64.4 °F 59 °F 29.9 in WNW 5.6 mph 6.8 mph 83% 0 in 195.00 W/m2 unknown
11:59 64.4 °F 57.2 °F 29.9 in WNW 6.2 mph 8.1 mph 83% 0 in 207.00 W/m2 unknown
12:04 62.6 °F 57.2 °F 29.9 in WNW 6.2 mph 8.1 mph 82% 0 in 264.00 W/m2 unknown
12:09 64.4 °F 57.2 °F 29.9 in WNW 6.2 mph 8.1 mph 82% 0 in 385.00 W/m2 unknown
12:14 64.4 °F 57.2 °F 29.9 in WNW 6.8 mph 8.1 mph 81% 0 in 406.00 W/m2 unknown
12:19 64.4 °F 59 °F 29.9 in WNW 6.2 mph 8.1 mph 81% 0 in 388.00 W/m2 unknown
12:24 64.4 °F 57.2 °F 29.9 in WNW 6.2 mph 8.1 mph 79% 0 in 406.00 W/m2 unknown
12:29 64.4 °F 59 °F 29.9 in WNW 5 mph 6.8 mph 79% 0 in 434.00 W/m2 unknown
12:34 66.2 °F 59 °F 29.9 in NW 5 mph 6.2 mph 79% 0 in 450.00 W/m2 unknown
12:39 66.2 °F 59 °F 29.9 in NW 3.7 mph 6.2 mph 78% 0 in 538.00 W/m2 unknown
12:44 66.2 °F 59 °F 29.9 in NNW 3.7 mph 6.2 mph 78% 0 in 538.00 W/m2 unknown
12:49 66.2 °F 59 °F 29.9 in NNW 3.7 mph 5 mph 76% 0 in 445.00 W/m2 unknown
12:54 66.2 °F 59 °F 29.9 in West 3.1 mph 6.2 mph 77% 0 in 814.00 W/m2 unknown
12:59 66.2 °F 59 °F 29.9 in WSW 5.6 mph 6.8 mph 78% 0 in 570.00 W/m2 unknown
13:04 66.2 °F 59 °F 29.9 in SW 6.2 mph 6.8 mph 77% 0 in 246.00 W/m2 unknown
13:09 64.4 °F 57.2 °F 29.9 in WSW 5 mph 6.2 mph 77% 0 in 271.00 W/m2 unknown
13:14 64.4 °F 57.2 °F 29.9 in WSW 5 mph 6.2 mph 77% 0 in 265.00 W/m2 unknown
13:19 66.2 °F 59 °F 29.9 in WSW 5 mph 6.2 mph 78% 0 in 265.00 W/m2 unknown
13:24 66.2 °F 57.2 °F 29.9 in WSW 5 mph 6.2 mph 77% 0 in 243.00 W/m2 unknown
13:29 66.2 °F 59 °F 29.9 in West 3.1 mph 3.7 mph 78% 0 in 232.00 W/m2 unknown
13:34 66.2 °F 57.2 °F 29.9 in West 2.5 mph 5 mph 77% 0 in 250.00 W/m2 unknown
13:39 66.2 °F 59 °F 29.9 in West 3.7 mph 5 mph 77% 0 in 250.00 W/m2 unknown
13:44 66.2 °F 59 °F 29.9 in West 3.7 mph 6.2 mph 77% 0 in 246.00 W/m2 unknown
13:49 66.2 °F 59 °F 29.9 in WSW 5 mph 6.2 mph 77% 0 in 220.00 W/m2 unknown
13:54 66.2 °F 57.2 °F 29.9 in WSW 1.9 mph 6.2 mph 77% 0 in 213.00 W/m2 unknown
13:59 66.2 °F 59 °F 29.9 in West 3.7 mph 5 mph 77% 0 in 236.00 W/m2 unknown
14:04 66.2 °F 59 °F 29.9 in West 3.1 mph 5 mph 77% 0 in 250.00 W/m2 unknown
14:09 66.2 °F 59 °F 29.9 in WNW 4.3 mph 6.2 mph 77% 0 in 251.00 W/m2 unknown
14:14 66.2 °F 59 °F 29.9 in West 4.3 mph 6.2 mph 77% 0 in 269.00 W/m2 unknown
14:19 66.2 °F 59 °F 29.9 in NW 3.7 mph 6.2 mph 76% 0 in 269.00 W/m2 unknown
14:24 66.2 °F 59 °F 29.9 in WNW 3.1 mph 5 mph 76% 0 in 220.00 W/m2 unknown
14:29 66.2 °F 59 °F 29.9 in WNW 1.9 mph 3.7 mph 77% 0 in 258.00 W/m2 unknown
14:34 66.2 °F 59 °F 29.9 in WNW 3.7 mph 5 mph 77% 0 in 540.00 W/m2 unknown
14:39 68 °F 59 °F 29.9 in NW 3.1 mph 5 mph 78% 0 in 905.00 W/m2 unknown
14:44 68 °F 59 °F 29.9 in WNW 5 mph 6.8 mph 76% 0 in 905.00 W/m2 unknown
14:49 66.2 °F 59 °F 29.9 in NW 5 mph 6.8 mph 75% 0 in 445.00 W/m2 unknown
14:54 66.2 °F 59 °F 29.9 in West 3.1 mph 6.2 mph 75% 0 in 445.00 W/m2 unknown
14:59 66.2 °F 59 °F 29.9 in SSW 3.7 mph 6.2 mph 75% 0 in 216.00 W/m2 unknown
15:04 66.2 °F 59 °F 29.9 in SSW 3.7 mph 6.2 mph 75% 0 in 209.00 W/m2 unknown
15:09 66.2 °F 59 °F 29.9 in WSW 3.1 mph 6.2 mph 76% 0 in 169.00 W/m2 unknown
15:14 66.2 °F 59 °F 29.9 in WSW 3.1 mph 3.7 mph 76% 0 in 243.00 W/m2 unknown
15:19 66.2 °F 59 °F 29.8 in WSW 1.9 mph 3.7 mph 77% 0 in 290.00 W/m2 unknown
15:24 66.2 °F 59 °F 29.8 in SW 2.5 mph 3.7 mph 77% 0 in 276.00 W/m2 unknown
15:29 66.2 °F 59 °F 29.8 in West 3.1 mph 3.7 mph 76% 0 in 218.00 W/m2 unknown
15:34 66.2 °F 59 °F 29.8 in WNW 3.1 mph 5 mph 76% 0 in 195.00 W/m2 unknown
15:39 66.2 °F 59 °F 29.8 in SW 3.1 mph 5 mph 76% 0 in 188.00 W/m2 unknown
15:44 66.2 °F 59 °F 29.8 in SW 2.5 mph 5 mph 76% 0 in 186.00 W/m2 unknown
15:49 66.2 °F 57.2 °F 29.8 in SW 3.1 mph 3.7 mph 76% 0 in 223.00 W/m2 unknown
15:54 66.2 °F 59 °F 29.8 in SW 3.1 mph 5 mph 76% 0 in 241.00 W/m2 unknown
15:59 66.2 °F 59 °F 29.8 in SW 3.7 mph 5 mph 77% 0 in 271.00 W/m2 unknown
16:04 66.2 °F 59 °F 29.8 in SSW 3.1 mph 5 mph 77% 0 in 374.00 W/m2 unknown
16:09 66.2 °F 59 °F 29.8 in WSW 3.1 mph 3.7 mph 77% 0 in 374.00 W/m2 unknown
16:14 66.2 °F 59 °F 29.8 in West 3.1 mph 3.7 mph 76% 0 in 236.00 W/m2 unknown
16:19 66.2 °F 59 °F 29.8 in West 1.9 mph 3.7 mph 77% 0 in 156.00 W/m2 unknown
16:24 66.2 °F 59 °F 29.8 in WSW 1.2 mph 2.5 mph 77% 0 in 172.00 W/m2 unknown
16:29 66.2 °F 59 °F 29.8 in West 1.2 mph 3.1 mph 76% 0 in 176.00 W/m2 unknown
16:34 66.2 °F 59 °F 29.8 in WSW 3.1 mph 3.7 mph 77% 0 in 218.00 W/m2 unknown
16:39 66.2 °F 59 °F 29.8 in SW 2.5 mph 3.7 mph 77% 0 in 483.00 W/m2 unknown
16:44 66.2 °F 59 °F 29.8 in SW 3.1 mph 6.2 mph 77% 0 in 483.00 W/m2 unknown
16:49 66.2 °F 59 °F 29.8 in SW 3.7 mph 6.2 mph 77% 0 in 197.00 W/m2 unknown
16:54 66.2 °F 59 °F 29.8 in SSW 3.1 mph 6.2 mph 77% 0 in 176.00 W/m2 unknown
16:59 66.2 °F 59 °F 29.8 in SW 3.1 mph 6.2 mph 78% 0 in 192.00 W/m2 unknown
17:04 66.2 °F 59 °F 29.8 in WSW 3.7 mph 5 mph 78% 0 in 230.00 W/m2 unknown
17:09 66.2 °F 59 °F 29.8 in SSW 3.7 mph 5 mph 78% 0 in 230.00 W/m2 unknown
17:14 66.2 °F 59 °F 29.8 in SSW 3.7 mph 5 mph 77% 0 in 155.00 W/m2 unknown
17:19 66.2 °F 59 °F 29.8 in SW 3.7 mph 6.2 mph 78% 0 in 144.00 W/m2 unknown
17:24 66.2 °F 59 °F 29.8 in SW 4.3 mph 6.2 mph 77% 0 in 144.00 W/m2 unknown
17:29 66.2 °F 59 °F 29.8 in SSW 5 mph 6.2 mph 78% 0 in 156.00 W/m2 unknown
17:34 66.2 °F 59 °F 29.8 in SSW 4.3 mph 6.2 mph 77% 0 in 207.00 W/m2 unknown
17:39 66.2 °F 59 °F 29.8 in SSW 4.3 mph 6.2 mph 77% 0 in 223.00 W/m2 unknown
17:44 66.2 °F 59 °F 29.8 in South 5 mph 6.8 mph 77% 0 in 223.00 W/m2 unknown
17:49 66.2 °F 59 °F 29.8 in South 5 mph 6.8 mph 76% 0 in 111.00 W/m2 unknown
17:54 66.2 °F 59 °F 29.8 in South 5 mph 6.2 mph 77% 0 in 67.00 W/m2 unknown
17:59 66.2 °F 59 °F 29.8 in SSW 3.1 mph 5 mph 78% 0 in 62.00 W/m2 unknown
18:04 66.2 °F 59 °F 29.8 in SSW 3.1 mph 5 mph 79% 0 in 62.00 W/m2 unknown
18:09 64.4 °F 59 °F 29.8 in SSW 3.1 mph 5 mph 79% 0 in 53.00 W/m2 unknown
18:14 64.4 °F 59 °F 29.8 in SSW 3.7 mph 5 mph 79% 0 in 47.00 W/m2 unknown
18:19 64.4 °F 59 °F 29.8 in SSW 3.7 mph 5 mph 80% 0 in 56.00 W/m2 unknown
18:24 64.4 °F 59 °F 29.8 in SSW 3.7 mph 5 mph 80% 0 in 60.00 W/m2 unknown
18:29 64.4 °F 59 °F 29.8 in SW 3.7 mph 5 mph 80% 0 in 47.00 W/m2 unknown
18:34 64.4 °F 59 °F 29.8 in SSW 3.1 mph 5 mph 80% 0 in 40.00 W/m2 unknown
18:39 64.4 °F 59 °F 29.8 in SSW 2.5 mph 5 mph 80% 0 in 33.00 W/m2 unknown
18:44 64.4 °F 59 °F 29.8 in SW 1.9 mph 3.7 mph 81% 0 in 25.00 W/m2 unknown
18:49 64.4 °F 59 °F 29.8 in SSW 2.5 mph 5 mph 81% 0 in 21.00 W/m2 unknown
18:54 64.4 °F 59 °F 29.8 in South 2.5 mph 5 mph 82% 0 in 16.00 W/m2 unknown
18:59 64.4 °F 59 °F 29.8 in South 1.9 mph 5 mph 82% 0 in 12.00 W/m2 unknown
19:04 64.4 °F 59 °F 29.8 in SSW 1.2 mph 3.1 mph 83% 0 in 7.00 W/m2 unknown
19:09 64.4 °F 59 °F 29.8 in SSW 1.9 mph 3.7 mph 83% 0 in 5.00 W/m2 unknown
19:14 64.4 °F 59 °F 29.8 in SSW 2.5 mph 3.7 mph 83% 0 in 0.00 W/m2 unknown
19:19 64.4 °F 59 °F 29.8 in SSW 2.5 mph 3.7 mph 84% 0 in 0.00 W/m2 unknown
19:24 64.4 °F 59 °F 29.8 in SW 2.5 mph 3.7 mph 84% 0 in 0.00 W/m2 unknown
19:29 64.4 °F 59 °F 29.8 in SW 1.9 mph 3.7 mph 84% 0 in 0.00 W/m2 unknown
19:34 64.4 °F 59 °F 29.8 in SSW 1.9 mph 3.7 mph 84% 0 in 0.00 W/m2 unknown
19:39 62.6 °F 59 °F 29.8 in SSW 1.2 mph 3.1 mph 85% 0 in 0.00 W/m2 unknown
19:44 62.6 °F 59 °F 29.8 in South 0.6 mph 2.5 mph 85% 0 in 0.00 W/m2 unknown
19:49 62.6 °F 59 °F 29.8 in South 0.6 mph 1.9 mph 86% 0 in 0.00 W/m2 unknown
19:54 62.6 °F 59 °F 29.8 in South 0.6 mph 1.9 mph 86% 0 in 0.00 W/m2 unknown
19:59 62.6 °F 57.2 °F 29.8 in SW 1.2 mph 2.5 mph 87% 0 in 0.00 W/m2 unknown
20:04 62.6 °F 57.2 °F 29.8 in SW 1.2 mph 2.5 mph 87% 0 in 0.00 W/m2 unknown
20:09 62.6 °F 57.2 °F 29.8 in SW 1.9 mph 2.5 mph 87% 0 in 0.00 W/m2 unknown
20:14 62.6 °F 57.2 °F 29.8 in SW 1.9 mph 3.1 mph 87% 0 in 0.00 W/m2 unknown
20:19 60.8 °F 57.2 °F 29.8 in SW 1.9 mph 3.7 mph 88% 0 in 0.00 W/m2 unknown
20:24 60.8 °F 57.2 °F 29.8 in WSW 1.9 mph 3.7 mph 88% 0 in 0.00 W/m2 unknown
20:29 60.8 °F 57.2 °F 29.8 in WSW 2.5 mph 3.7 mph 88% 0 in 0.00 W/m2 unknown
20:34 60.8 °F 57.2 °F 29.8 in WSW 1.9 mph 3.7 mph 88% 0 in 0.00 W/m2 unknown
20:39 62.6 °F 59 °F 29.8 in SW 1.2 mph 3.1 mph 88% 0 in 0.00 W/m2 unknown
20:44 62.6 °F 59 °F 29.8 in SW 1.2 mph 2.5 mph 88% 0 in 0.00 W/m2 unknown
20:49 62.6 °F 59 °F 29.8 in SW 1.2 mph 2.5 mph 88% 0 in 0.00 W/m2 unknown
20:54 62.6 °F 59 °F 29.8 in SW 1.2 mph 3.1 mph 88% 0 in 0.00 W/m2 unknown
20:59 60.8 °F 57.2 °F 29.8 in WSW 1.9 mph 3.7 mph 88% 0 in 0.00 W/m2 unknown
21:04 60.8 °F 57.2 °F 29.8 in WSW 1.2 mph 3.7 mph 88% 0 in 0.00 W/m2 unknown
21:09 60.8 °F 57.2 °F 29.8 in WSW 1.2 mph 3.1 mph 89% 0 in 0.00 W/m2 unknown
21:14 60.8 °F 57.2 °F 29.8 in Calm   1.2 mph 89% 0 in 0.00 W/m2 unknown
21:19 60.8 °F 57.2 °F 29.8 in WSW 0.6 mph 1.2 mph 90% 0 in 0.00 W/m2 unknown
21:24 60.8 °F 57.2 °F 29.8 in WSW 0.6 mph 1.2 mph 90% 0 in 0.00 W/m2 unknown
21:29 60.8 °F 57.2 °F 29.8 in Calm   1.2 mph 90% 0 in 0.00 W/m2 unknown
21:34 60.8 °F 57.2 °F 29.8 in Calm     90% 0 in 0.00 W/m2 unknown
21:39 60.8 °F 57.2 °F 29.8 in Calm     90% 0 in 0.00 W/m2 unknown
21:44 60.8 °F 57.2 °F 29.8 in Calm   1.2 mph 91% 0 in 0.00 W/m2 unknown
21:49 60.8 °F 57.2 °F 29.8 in SW 1.9 mph 2.5 mph 91% 0 in 0.00 W/m2 unknown
21:54 59 °F 57.2 °F 29.8 in SW 1.9 mph 2.5 mph 91% 0 in 0.00 W/m2 unknown
21:59 59 °F 57.2 °F 29.8 in WSW 1.2 mph 2.5 mph 91% 0 in 0.00 W/m2 unknown
22:04 59 °F 57.2 °F 29.8 in WSW 1.2 mph 1.9 mph 91% 0 in 0.00 W/m2 unknown
22:09 59 °F 57.2 °F 29.8 in WSW 1.2 mph 1.2 mph 91% 0 in 0.00 W/m2 unknown
22:14 59 °F 57.2 °F 29.8 in Calm   1.2 mph 91% 0 in 0.00 W/m2 unknown
22:19 59 °F 57.2 °F 29.8 in Calm   1.2 mph 91% 0 in 0.00 W/m2 unknown
22:24 59 °F 57.2 °F 29.8 in Calm   1.2 mph 92% 0 in 0.00 W/m2 unknown
22:29 59 °F 57.2 °F 29.8 in Calm     92% 0 in 0.00 W/m2 unknown
22:34 59 °F 57.2 °F 29.8 in Calm     92% 0 in 0.00 W/m2 unknown
22:39 59 °F 57.2 °F 29.8 in Calm     92% 0 in 0.00 W/m2 unknown
22:44 59 °F 57.2 °F 29.8 in Calm     92% 0 in 0.00 W/m2 unknown
22:49 59 °F 57.2 °F 29.8 in Calm     92% 0 in 0.00 W/m2 unknown
22:54 59 °F 57.2 °F 29.8 in Calm     92% 0 in 0.00 W/m2 unknown
22:59 59 °F 57.2 °F 29.8 in WSW 0.6 mph 1.2 mph 92% 0 in 0.00 W/m2 unknown
23:04 59 °F 55.4 °F 29.8 in WSW 1.2 mph 2.5 mph 92% 0 in 0.00 W/m2 unknown
23:09 59 °F 55.4 °F 29.8 in WSW 1.2 mph 2.5 mph 92% 0 in 0.00 W/m2 unknown
23:14 59 °F 55.4 °F 29.8 in SW 1.9 mph 3.1 mph 92% 0 in 0.00 W/m2 unknown
23:19 57.2 °F 55.4 °F 29.8 in SW 2.5 mph 3.7 mph 92% 0 in 0.00 W/m2 unknown
23:24 57.2 °F 55.4 °F 29.8 in WSW 1.9 mph 3.7 mph 92% 0 in 0.00 W/m2 unknown
23:29 57.2 °F 55.4 °F 29.8 in West 1.9 mph 3.1 mph 93% 0 in 0.00 W/m2 unknown
23:34 59 °F 55.4 °F 29.8 in West 1.2 mph 2.5 mph 93% 0 in 0.00 W/m2 unknown
23:39 59 °F 55.4 °F 29.8 in West 1.2 mph 2.5 mph 93% 0 in 0.00 W/m2 unknown
23:44 59 °F 55.4 °F 29.8 in WSW 1.2 mph 2.5 mph 93% 0 in 0.00 W/m2 unknown
23:49 59 °F 55.4 °F 29.8 in WSW 1.9 mph 3.7 mph 93% 0 in 0.00 W/m2 unknown
23:54 59 °F 55.4 °F 29.8 in WSW 1.9 mph 3.7 mph 93% 0 in 0.00 W/m2 unknown
23:59 59 °F 57.2 °F 29.8 in WSW 1.2 mph 3.1 mph 93% 0 in 0.00 W/m2 unknown
Stazione Meteorologica MeteoMincio Rivalta s/M (MN)
Con i complimenti di Weather Underground - 4 mb



METEO PILLOLE
I venti più violenti (escluso i tornado)
Mount Washington - New Hampshire
Il 12 aprile 1934 furono misurate raffiche a oltre 372 Km/h.
Share

Non seguire questo link o sarai bannato dal sito!